Regional Weather Roundup
Issued by NWS

Home | Current Version | Previous Version | Graphics & Text | Print | Product List | Glossary On
Versions: 1 2 3 4 5 6 7 8 9 10 11 12 13 14 15 16 17 18 19 20 21 22 23 24 25 26 27 28 29 30 31 32 33 34 35 36 37 38 39 40 41 42 43 44 45 46 47 48 49 50
438
ASUS43 KFSD 171802
RWRSD

WEATHER ROUNDUP FOR SOUTH DAKOTA
NATIONAL WEATHER SERVICE SIOUX FALLS SD
1200 PM CST TUE JAN 17 2017

NOTE: "FAIR" INDICATES FEW OR NO CLOUDS BELOW 12,000 FEET WITH NO
SIGNIFICANT WEATHER AND/OR OBSTRUCTIONS TO VISIBILITY.


SDZ001>005-009-010-012>017-171900-
NORTHWEST AND NORTH CENTRAL SOUTH DAKOTA

CITY           SKY/WX    TMP DP  RH WIND       PRES   REMARKS
BUFFALO          N/A     28  13  53 W12       29.81F WCI  18
FAITH            N/A     20  13  74 SW14      29.90F WCI   7
MOBRIDGE       CLOUDY    14   7  73 SE9       29.92F WCI   2
$$

SDZ012>016-024>037-041>051-057-063-072>074-171900-
SOUTHWEST AND SOUTH CENTRAL SOUTH DAKOTA

CITY           SKY/WX    TMP DP  RH WIND       PRES   REMARKS
RAPID CTY ARPT SUNNY     26  15  63 SE3       29.91S
PIERRE         CLOUDY    20  12  71 SW7       29.99F WCI  11
CUSTER         CLOUDY    43   4  19 W6        29.91R
ELLSWORTH AFB  SUNNY     30  12  46 CALM      29.89F
PHILIP         CLOUDY    22  12  65 NW6       29.97F WCI  14
PINE RIDGE       N/A    N/A N/A N/A MISG      29.98F
SPEARFISH      FAIR      43  16  33 W7        29.90F
WINNER         FAIR      40  24  53 SW7       30.00F
$$

SDZ004>011-016>023-039-040-171900-
NORTHEAST SOUTH DAKOTA

CITY           SKY/WX    TMP DP  RH WIND       PRES   REMARKS
ABERDEEN       CLOUDY    13   6  74 S8        30.00F WCI   2
WATERTOWN      CLOUDY    13  11  92 CALM      29.98S
BROOKINGS      CLOUDY    22  17  81 SW5       30.00F WCI  16
SISSETON         N/A     21  17  84 SE3       29.97F
$$

SDZ017-020-022-023-036>040-048>070-171900-
SOUTHEAST SOUTH DAKOTA

CITY           SKY/WX    TMP DP  RH WIND       PRES   REMARKS
SIOUX FALLS    SUNNY     24  18  77 W7        30.03F WCI  16
HURON          CLOUDY    22  14  71 E3        30.04F
CHAMBERLAIN    CLOUDY    28  19  67 W3        30.02F
MITCHELL       SUNNY     26  19  74 CALM      30.05F
YANKTON        SUNNY     27  21  80 CALM      30.06F
$$

ABBREVIATIONS USED IN REMARKS
   TC - TEMPERATURE IN CELSIUS
  WCI - WIND CHILL INDEX
   HX - HEAT INDEX
  VSB - VISIBILITY





USA.gov is the U.S. government's official web portal to all federal, state and local government web resources and services.